Location: Mahannah Oil Field
(37.4664°N, 96.6003°W)
Time: 02:11:11
(UTC+00:00)

deb Explorer IX - Pass Details

Date: 25 January 2021
Orbit: 537 x 1102 km, 38.8° (Epoch: 25 February)

Event Time Altitude Azimuth Distance (km) Brightness Sun altitude
Rises 06:13:04 0° 273° (W) 3,030 - -70.6°
Reaches altitude 10° 06:17:04 10° 242° (WSW) 1,983 - -70.8°
Maximum altitude 06:18:40 12° 221° (SW) 1,824 - -70.9°
Drops below altitude 10° 06:20:14 10° 200° (SSW) 1,895 - -71.0°
Sets 06:23:49 0° 166° (SSE) 2,713 - -71.1°
